DMSP 5D-2 F13 DEB, 40489

Orbit data source: Space-Track

DMSP 5D-2 F13 DEB, 40489 is space debris in SSO originally from a launch on Fri, 24 Mar 1995 UTC launched from the Air Force Western Test Range (AFWTR). Debris objects in space refer to the collection of defunct objects orbiting the Earth. Examples of debris include non-operational satellites, rocket bodies, and fragments generated from explosions, collisions, or faulty payload assembly.

Loading next visibility...
Identifier
40489, 1995-015CC
Orbit
SSO
Country
Flag of USUS
Related business
Manufacturer
Unknown
Mission
Spacecraft
Bus & Motor
Unknown
Mass
Unknown
Launch date (UTC)
1995-03-24 (31 years ago)
Launch vehicle
Unknown
Launch site
Air Force Western Test Range (AFWTR)
Object type
Payload
Rocket body
Debris
Shape & HBR
Unknown shape, 0.1 m
Radar Cross Section
Medium (>0.1 m² and <1 m²)

Expand to show TLE details & history
Last TLE update: 2 days ago

TLE from 2 days ago
0 DMSP 5D-2 F13 DEB
1 40489U 95015CC  26252.42075489  .00011089  00000-0  24668-2 0  9998
2 40489  98.7189 238.3695 0033444  53.1923 307.2335 14.56788029593567
Epoch: 2026-09-09T10:05Z
TLE epoch observation values (Epoch: 2026-09-09T10:05:53.222Z)
Latitude
0.00006°
Longitude
98.42467°
Altitude
692.246 km
Speed
7.518 km/s
True Right ascension
15h 53m 28s
True Declination
0° 00' 00"
Sunlit
Object was in daylight at epoch
Visualization orbit readout
Latitude
Unknown
Longitude
Unknown
Altitude
Unknown
Speed
Unknown
Apparent Right ascension
Unknown
Apparent Declination
Unknown
Sunlit
N/A
Visualization observer readout
Local Sidereal Time
01:16:14
Azimuth
Unknown
Elevation
Unknown
Doppler factor
Unknown
Orbital elements
Apogee altitude
724.349 km
Perigee altitude
677 km
Semi-major axis
7,078.811 km
Eccentricity
0.00334
Inclination
98.7189°
RAAN
238.3695°
Arg. of periapsis
53.1923°
True anomaly
306.9276°
Mean anomaly
307.2335°
Eccentric anomaly
307.08063°
Mean motion
3.6442 °/min
Orbital period
98.79 mins
BSTAR
0.0024668
Loading maneuver chart data...
Computing Atmospheric mass density...

Documentation

Showing up to 5 results
|